Regional Weather Roundup
Issued by NWS

Home | Current Version | Previous Version | Text Only | Print | Product List | Glossary On
Versions: 1 2 3 4 5 6 7 8 9 10 11 12 13 14 15 16 17 18 19 20 21 22 23 24 25 26 27 28 29 30 31 32 33 34 35 36 37 38 39 40 41 42 43 44 45 46 47 48 49 50
000
ASUS43 KMKX 011411
RWRWI

WISCONSIN REGIONAL WEATHER ROUNDUP
NATIONAL WEATHER SERVICE MILWAUKEE/SULLIVAN WI
900 AM CDT TUE SEP 01 2015

NOTE: "FAIR" INDICATES FEW OR NO CLOUDS BELOW 12,000 FEET WITH NO
SIGNIFICANT WEATHER AND/OR OBSTRUCTIONS TO VISIBILITY.

WIZ001-002-006>008-014>016-023>028-011500-
NORTHWEST WISCONSIN

CITY           SKY/WX    TMP DP  RH WIND       PRES   REMARKS
SUPERIOR ARPT  CLOUDY    73  70  91 W5        29.90S
ASHLAND        LGT RAIN  72  71  97 SW6       29.92R FOG
HAYWARD        PTSUNNY   72  68  87 SW9       29.95R
SIREN          PTSUNNY   72  68  88 SW5       29.93S
CUMBERLAND     MOSUNNY   70  68  94 S6        29.95F FOG
RICE LAKE      MOSUNNY   71  70  96 S6        29.96F FOG
CHETEK         PTSUNNY  N/A N/A N/A SE5       29.95F HAZE
LADYSMITH      FOG       71  70  96 S6        29.99S VSB 1/4
EAU CLAIRE     PTSUNNY   72  70  93 S6        29.95S FOG
MENOMONIE      FOG       72  71  98 CALM      29.95F VSB 3/4
NEW RICHMOND   PTSUNNY   74  69  85 S6        29.94S
OSCEOLA        PTSUNNY   74  74  99 S5        29.95F
$$

WIZ003>005-009-010-017-018-011500-
NORTH CENTRAL WISCONSIN

CITY           SKY/WX    TMP DP  RH WIND       PRES   REMARKS
MANITOWISH WTR CLOUDY    71  70  97 SW5       29.98S
ARBOR VITAE    CLOUDY    72  70  93 SW9       29.98F FOG
WOODRUFF       CLOUDY    72  70  93 SW9       29.98F FOG
RHINELANDER    CLOUDY    71  68  90 SW8       30.01S FOG
EAGLE RIVER    CLOUDY    70  69  96 SW3       29.99F FOG
LAND O LAKES   CLOUDY    73  69  88 S5        30.00S
PHILLIPS       CLOUDY    70  70 100 SW6       29.97F FOG
TOMAHAWK       FOG       69  68  96 CALM      30.00S VSB 1
MEDFORD        FOG       69  69 100 SW5       29.99F VSB<1/4
MERRILL        CLOUDY    71  70  98 CALM      30.00S FOG
$$

WIZ029-030-035-036-043>047-011500-
CENTRAL WISCONSIN

CITY           SKY/WX    TMP DP  RH WIND       PRES   REMARKS
WAUSAU         CLOUDY    72  68  87 CALM      29.98S FOG
MOSINEE        NOT AVBL
MARSHFIELD     MOSUNNY   71  68  90 VRB3      29.99F FOG
STEVENS POINT  SUNNY     72  68  87 SW6       30.00S
WAUPACA        SUNNY     73  72  96 S5        30.00S FOG
WAUTOMA        MOSUNNY   72  72 100 CALM      30.01S FOG
WISC RAPIDS    SUNNY     75  69  81 SW8       30.00S
CAMP DOUGLAS   MOSUNNY   75  75 100 VRB2      29.98F
$$

WIZ011>013-019>022-031-037>040-048>050-011500-
NORTHEAST WISCONSIN

CITY           SKY/WX    TMP DP  RH WIND       PRES   REMARKS
ANTIGO         CLOUDY    71  69  95 SW6       30.02S FOG
SHAWANO        SUNNY     73  70  91 SW3       29.99S
OCONTO         CLOUDY    73  73 100 SW3       29.98F
STURGEON BAY   SUNNY     73  68  83 S6        30.02F
GREEN BAY      PTSUNNY   73  70  90 S6        29.99F FOG
MANITOWOC      SUNNY     65  61  87 MISG      30.02F
APPLETON       MOSUNNY   72  72 100 VRB5      29.99F FOG
CLINTONVILLE   SUNNY     68  68 100 CALM      29.99F FOG
OSHKOSH        SUNNY     74  70  87 S10       29.99F FOG
$$

WIZ032>034-041-042-053>061-011500-
SOUTHWEST WISCONSIN

CITY           SKY/WX    TMP DP  RH WIND       PRES   REMARKS
LA CROSSE      MOSUNNY   74  71  91 SE3       29.97S FOG
SPARTA         SUNNY     76  69  80 S5        29.98F
VIROQUA          N/A     74  74 100 S3        30.01S
BOSCOBEL       MOSUNNY   72  71  97 CALM      29.99F FOG
PRAIRIE DU CHI SUNNY     74  69  83 CALM      29.99S
PLATTEVILLE    SUNNY     75  73  92 S6        30.02F
$$

WIZ056-057-062-063-064-067-068-011500-
SOUTH CENTRAL WISCONSIN

CITY           SKY/WX    TMP DP  RH WIND       PRES   REMARKS
REEDSBURG      SUNNY     75  71  89 S3        30.00S
BARABOO/DELLS  SUNNY     76  70  81 S5        30.01S
LONE ROCK      MOSUNNY   75  71  87 CALM      30.01S FOG
MINERAL POINT  SUNNY     73  73 100 S5        30.04S FOG
MADISON        SUNNY     76  70  82 S7        30.02S
MIDDLETON      SUNNY     78  72  82 SW3       30.03S
WATERTOWN      SUNNY     74  74 100 SW7       30.03S
MONROE         SUNNY     73  70  88 S8        30.04S FOG
JANESVILLE     SUNNY     75  73  94 SW7       30.03F FOG
$$

WIZ051-052-058>065-066-070>072-011500-
SOUTHEAST WISCONSIN

CITY           SKY/WX    TMP DP  RH WIND       PRES   REMARKS
MILWAUKEE      MOSUNNY   76  70  82 SW7       30.03S
WAUKESHA       SUNNY     73  70  88 SW3       30.05S
MILWAUKEE/TIMM SUNNY     77  70  78 SW6       30.03F
RACINE         MOSUNNY   77  70  79 SW7       30.05F
BURLINGTON     SUNNY     71  71  98 CALM      30.04S
KENOSHA        SUNNY     77  72  84 SW7       30.05S HAZE
FOND DU LAC    MOSUNNY   75  71  87 SW9       30.01S
SHEBOYGAN      MOSUNNY   72  69  90 SW6       30.02S FOG
WEST BEND      SUNNY     73  70  88 CALM      30.03S
JUNEAU         SUNNY     74  71  91 S7        30.04S
$$

LSZ147-162-011500-
LAKE SUPERIOR

STATION/POSITION TIME  TEMP    WIND        PRES    WAVE
                       AIR SEA DIR/SP/G            HT/PER
                 (UTC) (F)     (DEG/KT/KT) (MB)    (FT/S)
W MID LAKE BUOY  1350   59 54  220/  8/  8 1012.0S   1
DEVILS ISLAND    1400   66     230/  6/  8 1012.1F
PORT WING        1340   74     190/  5/  9 1012.5R
SAXON HARBOR     1300   75     200/  3/  7 1012.2
$$

LMZ867-665-643>646-011500-
LAKE MICHIGAN

STATION/POSITION TIME  TEMP    WIND        PRES    WAVE
                       AIR SEA DIR/SP/G            HT/PER
                 (UTC) (F)     (DEG/KT/KT) (MB)    (FT/S)
CHAMBERS ISLAND  1300   72     180/  4/  6 1015.9S
S GREEN BAY BUOY 1400   68 64  200/  6/  6 1016.7F
N MID LAKE BUOY  1350   65 65  190/ 12/ 14 1015.6F   2/ 4
NORTHPORT PIER   1300   66     150/  5/  8 1015.9S
KEWAUNEE LAKESHO 1300   50     150/  4/  5 1015.5S
SHEBOYGAN LAKESH 1400   67     170/  8/  9 1016.5F
PORT WASHINGTON  1300   58      CALM  /  1 1017.6S
ATWATER BUOY     1400   57 52  150/  6/  6 1018.1F
MILWAUKEE LAKESH 1310   61        CALM       N/A
S MID LAKE BUOY  1350   71 69  180/ 10/ 10 1017.2R   0
KENOSHA   LAKESH 1400   66     180/ 13/ 17 1016.9F
$$

TC  - TEMPERATURE IN CELSIUS
VSB - VISIBILITY IN STATUTE MILES
WCI - WIND CHILL INDEX
HX  - HEAT INDEX



USA.gov is the U.S. government's official web portal to all federal, state and local government web resources and services.